Location: Nairn
(57.5833°N, 3.8667°W)
Time: 17:02:25
(UTC+00:00)

S-56A Canister/Altair - Pass Details

Date: 29 November 2020
Orbit: 633 x 2499 km, 38.9° (Epoch: 19 January)

Event Time Altitude Azimuth Distance (km) Brightness Sun altitude
Rises 21:19:59 0° 238° (WSW) 5,162 12.0 -43.4°
Reaches altitude 10° 21:24:54 10° 224° (SW) 3,792 11.1 -44.0°
Enters shadow 21:25:45 12° 220° (SW) 3,575 10.9 -44.1°
Maximum altitude 21:30:56 19° 184° (S) 2,640 - -44.6°
Drops below altitude 10° 21:35:42 10° 141° (SE) 2,877 - -45.2°
Sets 21:38:46 0° 123° (ESE) 3,573 - -45.5°
